Tracking 17630 objects as of 25-May-2016
HD Live streaming from Space Station
objects crossing your sky now

RUBIN 2

Track RUBIN 2 now!
10-day predictions
RUBIN 2 is classified as:


NORAD ID: 27605
Int'l Code: 2002-058A
Perigee: 652.9 km
Apogee: 652.9 km
Inclination: 64.6 °
Period: 97.6 minutes
Semi major axis: 7023 km
RCS: 0.234 m2 (medium)
Launch date: December 20, 2002
Source: Germany (GER)
Launch site: TYURATAM MISSILE AND SPACE COMPLEX (TTMTR)
Uplink (MHz): 435.275
Downlink (MHz): 145.825
Beacon (MHz): 145.825
Mode: U/1200 D/9600 MSK
Call sign:
Status: Inactive

Your satellite tracking list
Your tracking list is empty





NASA's NSSDC Master Catalog

Two Line Element Set (TLE):
1 27605U 02058A   16145.55581474  .00000039  00000-0  26554-4 0  9999
2 27605  64.5553 214.5648 0071314 221.9168 137.6462 14.74797987722165
Source of the keplerian elements: AFSPC

N2YO: 519